Bad Axe, MI

7:05 AM EST on November 24, 2017 (GMT -0500)
Huron County Memorial

Weather History for KBAX - July, 2013

Change the Weather History Date:

Tuesday, July 2, 2013

  Actual Average (KP58) Record (KP58)
Temperature  
Mean Temperature 65 °F -  
Max Temperature 73 °F 74 °F 91 °F (2002)
Min Temperature 56 °F 58 °F 46 °F (2007)
Growing Degree Days 15 (Base 50)    
Moisture  
Dew Point 54 °F    
Average Humidity 71    
Maximum Humidity 94    
Minimum Humidity 51    
Precipitation  
Precipitation 0.00 in - - ()
Sea Level Pressure  
Sea Level Pressure 30.10 in    
Wind  
Wind Speed 6 mph (NE)    
Max Wind Speed 13 mph    
Max Gust Speed 18 mph    
Visibility 10 miles    
Events Rain    
Averages and records for this station are not official NWS values.
T = Trace of Precipitation, MM = Missing Value Source: NWS Daily Summary

Daily Weather History Graph

Daily Weather History Graph

Search for Another Location

Airport or City:

Trip Planner

Search our weather history database for the weather conditions in past years. The results will help you decide how hot, cold, wet, or windy it might be!

Date:

Astronomy

Jul. 02, 2013 Rise Set
Actual Time 5:54 AM EDT 9:17 PM EDT
Civil Twilight 5:18 AM EDT 9:53 PM EDT
Nautical Twilight 4:31 AM EDT 10:39 PM EDT
Astronomical Twilight 3:33 AM EDT 11:38 PM EDT
Moon 2:02 AM EDT (7/2) 4:25 PM EDT (7/2)
Length of Visible Light 16h 34m
Length of Day
15h 22m
Waning Crescent, 26% of the Moon is Illuminated
Jul 2
Waning Crescent
Jul 8
New
Jul 15
First Quarter
Jul 22
Full
Jul 29
Last Quarter

Hourly Weather History & Observations

Time (EDT) Temp. Dew Point Humidity Pressure Visibility Wind Dir Wind Speed Gust Speed Precip Events Conditions
12:13 AM 59.2 °F 50.5 °F 73% 30.11 in 10.0 mi NE 5.8 mph - N/A   Overcast
12:33 AM 59.5 °F 51.1 °F 74% 30.10 in 10.0 mi NNE 6.9 mph - N/A   Overcast
12:53 AM 60.3 °F 51.8 °F 74% 30.10 in 10.0 mi NE 8.1 mph - N/A   Overcast
1:13 AM 60.1 °F 52.5 °F 76% 30.10 in 10.0 mi NE 6.9 mph - N/A   Overcast
1:33 AM 59.9 °F 52.7 °F 77% 30.10 in 10.0 mi NE 8.1 mph - N/A   Overcast
1:53 AM 59.9 °F 53.1 °F 78% 30.09 in 10.0 mi NE 6.9 mph - N/A   Mostly Cloudy
2:13 AM 60.8 °F 52.9 °F 75% 30.09 in 10.0 mi NE 8.1 mph - N/A   Overcast
2:33 AM 61.2 °F 52.7 °F 74% 30.10 in 10.0 mi ENE 5.8 mph - N/A   Overcast
2:53 AM 61.7 °F 52.5 °F 72% 30.09 in 10.0 mi ENE 5.8 mph - N/A   Overcast
3:13 AM 61.7 °F 52.2 °F 71% 30.10 in 10.0 mi ENE 5.8 mph - N/A   Overcast
3:33 AM 61.3 °F 52.3 °F 72% 30.10 in 10.0 mi ENE 4.6 mph - N/A   Overcast
3:53 AM 61.5 °F 52.3 °F 72% 30.10 in 10.0 mi ENE 3.5 mph - N/A   Overcast
4:13 AM 61.0 °F 52.7 °F 74% 30.10 in 10.0 mi ENE 5.8 mph - N/A   Overcast
4:33 AM 61.2 °F 52.7 °F 74% 30.10 in 10.0 mi ENE 5.8 mph - N/A   Overcast
4:53 AM 60.6 °F 53.1 °F 76% 30.10 in 10.0 mi NE 4.6 mph - N/A Rain Light Rain
5:12 AM 60.1 °F 53.2 °F 78% 30.10 in 10.0 mi NE 4.6 mph - N/A   Overcast
5:33 AM 60.4 °F 53.1 °F 77% 30.10 in 10.0 mi NE 4.6 mph - N/A   Overcast
5:53 AM 60.8 °F 53.1 °F 76% 30.11 in 10.0 mi NE 4.6 mph - N/A   Overcast
6:14 AM 60.3 °F 53.2 °F 78% 30.11 in 10.0 mi Calm Calm - N/A Rain Rain
6:33 AM 59.0 °F 54.1 °F 84% 30.10 in 10.0 mi Calm Calm - N/A Rain Light Rain
6:53 AM 58.6 °F 55.4 °F 89% 30.11 in 5.0 mi Calm Calm - N/A Rain Light Rain
7:14 AM 58.5 °F 56.3 °F 93% 30.11 in 10.0 mi Calm Calm - N/A Rain Rain
7:33 AM 58.3 °F 56.5 °F 94% 30.11 in 10.0 mi NE 3.5 mph - N/A Rain Light Rain
7:53 AM 58.6 °F 56.3 °F 92% 30.11 in 10.0 mi NE 4.6 mph - N/A Rain Light Rain
8:13 AM 59.0 °F 56.5 °F 91% 30.12 in 10.0 mi NE 5.8 mph - N/A   Overcast
8:33 AM 59.4 °F 56.3 °F 90% 30.12 in 10.0 mi NE 4.6 mph - N/A   Overcast
8:53 AM 59.5 °F 56.7 °F 90% 30.12 in 10.0 mi NNE 5.8 mph - N/A Rain Light Rain
9:13 AM 60.3 °F 57.2 °F 90% 30.12 in 10.0 mi NNE 4.6 mph - N/A   Overcast
9:33 AM 60.8 °F 56.1 °F 85% 30.12 in 10.0 mi NE 4.6 mph - N/A   Overcast
9:53 AM 61.2 °F 56.3 °F 84% 30.12 in 10.0 mi NE 3.5 mph - N/A   Overcast
10:13 AM 62.2 °F 56.7 °F 82% 30.12 in 10.0 mi NE 4.6 mph - N/A   Overcast
10:33 AM 63.9 °F 56.7 °F 77% 30.12 in 10.0 mi NE 3.5 mph - N/A   Overcast
10:54 AM 64.9 °F 55.8 °F 72% 30.12 in 10.0 mi ENE 3.5 mph - N/A   Overcast
11:13 AM 66.2 °F 56.5 °F 71% 30.12 in 10.0 mi NE 5.8 mph - N/A   Overcast
11:33 AM 67.8 °F 57.2 °F 69% 30.11 in 10.0 mi NE 6.9 mph - N/A   Mostly Cloudy
11:54 AM 70.2 °F 55.6 °F 60% 30.10 in 10.0 mi NE 9.2 mph - N/A   Scattered Clouds
12:13 PM 71.2 °F 55.9 °F 58% 30.11 in 10.0 mi NE 10.4 mph - N/A   Clear
12:33 PM 71.4 °F 55.9 °F 58% 30.11 in 10.0 mi NE 9.2 mph - N/A   Clear
12:54 PM 71.8 °F 55.4 °F 56% 30.10 in 10.0 mi NE 10.4 mph - N/A   Clear
1:13 PM 71.8 °F 54.5 °F 54% 30.10 in 10.0 mi NE 8.1 mph - N/A   Clear
1:33 PM 73.4 °F 55.0 °F 52% 30.11 in 10.0 mi NNE 12.7 mph - N/A   Clear
1:54 PM 72.3 °F 54.5 °F 53% 30.10 in 10.0 mi NE 11.5 mph - N/A   Clear
2:13 PM 72.9 °F 54.7 °F 53% 30.10 in 10.0 mi ENE 11.5 mph 17.3 mph N/A   Clear
2:33 PM 72.7 °F 55.2 °F 54% 30.10 in 10.0 mi NNE 11.5 mph 17.3 mph N/A   Clear
2:54 PM 72.5 °F 54.7 °F 53% 30.10 in 10.0 mi NE 10.4 mph 17.3 mph N/A   Clear
3:13 PM 72.5 °F 55.4 °F 55% 30.10 in 10.0 mi NE 9.2 mph - N/A   Clear
3:33 PM 72.1 °F 54.7 °F 54% 30.10 in 10.0 mi NE 8.1 mph - N/A   Clear
3:53 PM 72.7 °F 55.0 °F 54% 30.10 in 10.0 mi NE 6.9 mph - N/A   Clear
4:13 PM 72.1 °F 53.8 °F 52% 30.09 in 10.0 mi NNE 11.5 mph 16.1 mph N/A   Clear
4:33 PM 72.3 °F 53.2 °F 51% 30.08 in 10.0 mi NE 12.7 mph - N/A   Clear
4:53 PM 72.5 °F 54.3 °F 53% 30.09 in 10.0 mi NE 9.2 mph - N/A   Scattered Clouds
5:13 PM 71.6 °F 54.3 °F 54% 30.09 in 10.0 mi NNE 12.7 mph 18.4 mph N/A   Scattered Clouds
5:34 PM 71.4 °F 55.0 °F 56% 30.09 in 10.0 mi NNE 8.1 mph - N/A   Clear
5:53 PM 70.7 °F 54.1 °F 56% 30.09 in 10.0 mi NNE 10.4 mph 16.1 mph N/A   Clear
6:13 PM 70.3 °F 53.6 °F 55% 30.09 in 10.0 mi NE 10.4 mph - N/A   Clear
6:34 PM 70.0 °F 53.4 °F 56% 30.09 in 10.0 mi NE 10.4 mph - N/A   Scattered Clouds
6:53 PM 69.1 °F 54.3 °F 59% 30.10 in 10.0 mi NNE 8.1 mph - N/A   Scattered Clouds
7:13 PM 68.5 °F 54.0 °F 60% 30.10 in 10.0 mi NE 8.1 mph - N/A   Clear
7:34 PM 68.2 °F 53.6 °F 60% 30.10 in 10.0 mi NE 8.1 mph - N/A   Clear
7:53 PM 67.1 °F 53.2 °F 61% 30.10 in 10.0 mi NE 6.9 mph - N/A   Clear
8:13 PM 66.6 °F 54.1 °F 64% 30.10 in 10.0 mi NE 5.8 mph - N/A   Clear
8:34 PM 65.5 °F 54.3 °F 67% 30.11 in 10.0 mi Calm Calm - N/A   Clear
8:53 PM 64.4 °F 54.5 °F 70% 30.11 in 10.0 mi North 3.5 mph - N/A   Scattered Clouds
9:13 PM 63.5 °F 54.5 °F 72% 30.10 in 10.0 mi NNE 4.6 mph - N/A   Overcast
9:34 PM 62.2 °F 54.9 °F 77% 30.10 in 10.0 mi Calm Calm - N/A   Overcast
9:53 PM 61.3 °F 55.0 °F 80% 30.10 in 10.0 mi North 3.5 mph - N/A   Overcast
10:13 PM 60.3 °F 55.0 °F 83% 30.10 in 10.0 mi NNE 3.5 mph - N/A   Scattered Clouds
10:34 PM 59.7 °F 55.2 °F 85% 30.11 in 10.0 mi North 4.6 mph - N/A   Clear
10:53 PM 59.0 °F 55.4 °F 88% 30.11 in 10.0 mi NNE 3.5 mph - N/A   Scattered Clouds
11:13 PM 58.3 °F 55.0 °F 89% 30.10 in 10.0 mi Calm Calm - N/A   Clear
11:34 PM 57.2 °F 54.5 °F 91% 30.10 in 10.0 mi Calm Calm - N/A   Clear
11:53 PM 56.8 °F 54.7 °F 92% 30.11 in 10.0 mi Calm Calm - N/A   Clear